This is the latest recevied weather packets stored in our database for station/object N8SDR. If no packets are shown the sender has not sent any weather packets the latest 10 day(s).
| Time | Temp. | Humidity | Pressure | Rain* | Wind** | Luminosity | Snow |
|---|---|---|---|---|---|---|---|
| 1778211101 | 10° C | 70% | 1011 hPa | 0 mm | - | 0 W/m² | - |
| 1778210797 | 10° C | 69% | 1010.8 hPa | 0 mm | - | 0 W/m² | - |
| 1778210494 | 10° C | 69% | 1011.1 hPa | 0 mm | - | 0 W/m² | - |
| 1778210191 | 9.44° C | 69% | 1010.8 hPa | 0 mm | - | 0 W/m² | - |
| 1778209887 | 10° C | 68% | 1010.9 hPa | 0 mm | - | 0 W/m² | - |
| 1778209584 | 10° C | 66% | 1010.9 hPa | 0 mm | - | 0 W/m² | - |
| 1778209282 | 10.56° C | 66% | 1010.8 hPa | 0 mm | - | 0 W/m² | - |
| 1778208978 | 10.56° C | 67% | 1010.8 hPa | 0 mm | - | 0 W/m² | - |
| 1778208675 | 10.56° C | 66% | 1010.7 hPa | 0 mm | - | 0 W/m² | - |
| 1778208371 | 10.56° C | 67% | 1010.8 hPa | 0 mm | - | 0 W/m² | - |
| 1778208068 | 10.56° C | 67% | 1010.7 hPa | 0 mm | - | 0 W/m² | - |
| 1778207764 | 10° C | 68% | 1010.8 hPa | 0 mm | - | 0 W/m² | - |
| 1778207462 | 10° C | 68% | 1011.2 hPa | 0 mm | - | 0 W/m² | - |
| 1778207158 | 10° C | 65% | 1011 hPa | 0 mm | - | 0 W/m² | - |
| 1778206855 | 10.56° C | 68% | 1010.8 hPa | 0 mm | - | 0 W/m² | - |
| 1778206550 | 10° C | 69% | 1010.9 hPa | 0 mm | - | 0 W/m² | - |
| 1778206247 | 10° C | 68% | 1010.6 hPa | 0 mm | - | 0 W/m² | - |
| 1778205944 | 10° C | 69% | 1010.6 hPa | 0 mm | - | 0 W/m² | - |
| 1778205642 | 10° C | 70% | 1010.8 hPa | 0 mm | - | 0 W/m² | - |
| 1778205339 | 10.56° C | 71% | 1010.9 hPa | 0 mm | - | 0 W/m² | - |
| 1778205036 | 10.56° C | 69% | 1010.7 hPa | 0 mm | - | 0 W/m² | - |
| 1778204732 | 10.56° C | 71% | 1010.6 hPa | 0 mm | - | 0 W/m² | - |
| 1778204429 | 10.56° C | 70% | 1010.8 hPa | 0 mm | - | 0 W/m² | - |
| 1778204125 | 11.11° C | 68% | 1010.9 hPa | 0 mm | - | 0 W/m² | - |
| 1778203822 | 11.11° C | 66% | 1010.6 hPa | 0 mm | - | 0 W/m² | - |
* Rain latest hour (hover to see other rain measurements)
** Current wind speed in m/s (hover to see current wind gust speed)